[[{"header":{"parameterUnit":"m.s-1","parameterCategory":1,"la1":30.2991,"la2":30.254,"lo1":-89.0895,"lo2":-89.0444,"dy":0.0017,"dx":0.0017,"nx":28,"ny":28,"refTime":"2025-08-16T09:00:00:Z","depth":0,"parameterNumber":2,"parameterNumberName":"U-component_of_WINDS"},"data":[0,0,0,0,0,0,0,0,0,0,0,0,0,0,0,0,0,0,0,0,0,0,0,0,0,0,0,0,0,0,0,0,0,0,0,0,0,0,0,0,0,0,0,0,0,0,0,0,0,0,0,0,0,0,0,0,0,0,-1.0861,-1.086,0,-1.0764,-1.0763,-1.0761,-1.0652,-1.065,-1.0648,-1.0647,-1.0547,-1.0546,-1.0545,0,0,0,0,0,0,0,0,0,0,0,0,0,-1.095,-1.0949,-1.0861,-1.086,-1.0859,-1.0764,-1.0763,-1.0761,-1.0652,-1.065,-1.0648,-1.0646,-1.0548,-1.0546,-1.0545,0,0,0,0,0,0,0,0,0,0,0,0,0,-1.0888,-1.0949,-1.0861,-1.0793,-1.0786,-1.0764,-1.0762,-1.0761,-1.0652,-1.065,-1.0648,-1.0645,-1.0548,-1.0547,-1.0545,-1.0583,0,0,-1.054,-1.0539,0,0,0,0,0,0,0,0,-1.0892,-1.0885,-1.0804,-1.0797,-1.0789,-1.0717,-1.0757,-1.0701,-1.0653,-1.0703,-1.0647,-1.0644,-1.0606,-1.0599,-1.0586,-1.0578,-1.0574,-1.0539,-1.0538,-1.0538,-1.0537,0,0,0,0,0,0,0,-1.0896,-1.0888,-1.0823,-1.0803,-1.0794,-1.0766,-1.0755,-1.0746,-1.0669,-1.0698,-1.069,-1.068,-1.0601,-1.0588,-1.0583,-1.0573,-1.054,-1.0538,-1.0537,-1.0536,-1.0586,-1.0588,0,0,0,0,0,0,-1.0911,-1.0893,-1.0826,-1.082,-1.0836,-1.0766,-1.0754,-1.0743,-1.0669,-1.0655,-1.0682,-1.0675,-1.0592,-1.0585,-1.0579,-1.0615,-1.0538,-1.0536,-1.0535,-1.0583,-1.0586,-1.0589,0,0,0,0,0,0,-1.0913,-1.0906,-1.083,-1.0854,-1.0842,-1.0767,-1.0756,-1.0742,-1.0729,-1.0657,-1.0643,-1.0683,-1.059,-1.0582,-1.0582,-1.0611,-1.0535,-1.0534,-1.0581,-1.0584,-1.0587,-1.0691,0,0,0,0,0,0,-1.0916,-1.0908,-1.0922,-1.0855,-1.0841,-1.0835,-1.0758,-1.0742,-1.0726,-1.0716,-1.0654,-1.0641,-1.0588,-1.0585,-1.058,-1.0607,-1.0532,-1.0578,-1.0582,-1.0586,-1.0684,-1.0697,-1.0708,0,0,0,0,0,-1.092,-1.0956,-1.0923,-1.0916,-1.0858,-1.0837,-1.0829,-1.0766,-1.0729,-1.0742,-1.0695,-1.0643,-1.0609,-1.0586,-1.0579,-1.0606,-1.0575,-1.0581,-1.0586,-1.0679,-1.0695,-1.0708,0,0,0,0,0,0,-1.1029,-1.0946,-1.0909,-1.0925,-1.0889,-1.0818,-1.0833,-1.0786,-1.076,-1.0751,-1.0675,-1.0662,-1.067,-1.0638,-1.0614,-1.0637,-1.0584,-1.0589,-1.0657,-1.0672,-1.0683,-1.069,-1.0531,0,0,0,0,0,-1.1055,-1.1046,-1.0973,-1.0994,-1.0978,-1.0909,-1.0898,-1.0852,-1.0812,-1.0796,-1.0749,-1.0711,-1.0691,-1.068,-1.0658,-1.068,-1.0662,-1.0694,-1.0707,-1.0717,-1.0721,-1.0725,-1.0738,-1.0606,-1.0606,-1.0606,0,0,-1.1109,-1.1062,-1.1061,-1.1015,-1.0981,-1.0972,-1.0897,-1.0891,-1.0882,-1.0795,-1.0791,-1.0755,-1.0708,-1.0718,-1.072,-1.0692,-1.0753,-1.0723,-1.0732,-1.073,-1.0732,-1.0745,-1.0756,-1.061,-1.0609,-1.0608,0,0,-1.1201,-1.1166,-1.1177,-1.1145,-1.1095,-1.1048,-1.1051,-1.0987,-1.096,-1.0955,-1.0888,-1.0876,-1.0845,-1.0812,-1.0792,-1.0868,-1.0817,-1.0863,-1.0925,-1.0931,-1.0941,-1.095,-1.0973,-1.0983,-1.0868,-1.0868,-1.0868,0,-1.1274,-1.1257,-1.119,-1.1186,-1.1166,-1.1086,-1.1096,-1.1068,-1.1014,-1.1001,-1.097,-1.0926,-1.0889,-1.0888,-1.0906,-1.0893,-1.0892,-1.0869,-1.0945,-1.0953,-1.096,-1.0982,-1.0991,-1.0873,-1.0873,-1.0872,-1.0872,0,-1.1347,-1.1336,-1.1351,-1.1299,-1.1282,-1.1285,-1.1217,-1.1207,-1.1163,-1.1119,-1.1112,-1.1065,-1.1029,-1.1026,-1.0984,-1.1018,-1.1001,-1.0959,-1.0904,-1.098,-1.0998,-1.1006,-1.0881,-1.0879,-1.0878,-1.0876,0,0,-1.1506,-1.1415,-1.1421,-1.1395,-1.1332,-1.1322,-1.1321,-1.1286,-1.1277,-1.1242,-1.1237,-1.121,-1.1169,-1.1146,-1.1099,-1.1104,-1.1162,-1.106,-1.1057,-1.1078,-1.1192,-1.1223,-1.1234,-1.1129,-1.113,-1.1132,-1.1195,0,-1.1584,-1.1577,-1.1515,-1.1525,-1.1512,-1.1435,-1.1433,-1.1393,-1.1352,-1.1334,-1.1288,-1.1268,-1.1218,-1.1202,-1.1204,-1.1155,-1.1184,-1.115,-1.1121,-1.1121,-1.1133,-1.1244,-1.1277,-1.134,-1.1203,-1.1204,-1.1205,0,-1.1675,-1.1644,-1.1653,-1.1586,-1.1579,-1.1579,-1.1539,-1.1524,-1.1477,-1.1446,-1.1418,-1.1364,-1.1356,-1.1305,-1.1291,-1.1269,-1.1253,-1.1227,-1.1228,-1.1221,-1.1166,-1.1238,-1.1359,-1.1368,-1.1216,-1.1216,-1.1215,0,-1.1786,-1.1746,-1.1745,-1.1725,-1.165,-1.165,-1.1619,-1.1569,-1.155,-1.1516,-1.1503,-1.1469,-1.1449,-1.1423,-1.136,-1.133,-1.1351,-1.1296,-1.1322,-1.1324,-1.1329,-1.1329,-1.1447,-1.1324,-1.1324,-1.1324,-1.1324,0,-1.1879,-1.1887,-1.1793,-1.1793,-1.1797,-1.1725,-1.1732,-1.1693,-1.1648,-1.1637,-1.1568,-1.1558,-1.1477,-1.1457,-1.1408,-1.1401,-1.1394,-1.1366,-1.1353,-1.1371,-1.1374,-1.1358,-1.1351,-1.1326,-1.1326,-1.1325,-1.1325,0,-1.2004,-1.1942,-1.1935,-1.1863,-1.1844,-1.1851,-1.1788,-1.1783,-1.1737,-1.1723,-1.1715,-1.1642,-1.1615,-1.1549,-1.1506,-1.1472,-1.1477,-1.1454,-1.1493,-1.1484,-1.1512,-1.151,-1.1622,-1.1631,-1.1506,-1.1507,-1.1508,0,-1.2066,-1.2069,-1.1997,-1.1984,-1.1955,-1.1936,-1.1916,-1.1845,-1.1827,-1.1771,-1.1772,-1.1739,-1.1709,-1.1669,-1.1611,-1.1576,-1.1549,-1.1591,-1.1543,-1.156,-1.1546,-1.1545,-1.1543,-1.1601,-1.1603,-1.1604,-1.1605,0,-1.2182,-1.215,-1.2125,-1.2088,-1.2066,-1.2034,-1.1998,-1.1991,-1.191,-1.1893,-1.1864,-1.1841,-1.1794,-1.1761,-1.1717,-1.1682,-1.1629,-1.1621,-1.1624,-1.1642,-1.1663,-1.1648,-1.1518,-1.1618,-1.1617,-1.1616,-1.1615,-1.1615,-1.2274,-1.2272,-1.222,-1.2193,-1.2158,-1.2125,-1.2116,-1.2067,-1.2042,-1.1999,-1.1958,-1.1932,-1.188,-1.1815,-1.1783,-1.176,-1.1734,-1.174,-1.1741,-1.1743,-1.1749,-1.1669,-1.1752,-1.1752,-1.1751,-1.1751,-1.1751,0,-1.2384,-1.2346,-1.2322,-1.2272,-1.2251,-1.2204,-1.216,-1.2144,-1.2122,-1.2079,-1.205,-1.2015,-1.1982,-1.192,-1.1881,-1.1874,-1.1848,-1.1866,-1.1864,-1.1856,-1.1777,-1.1777,-1.1887,-1.1887,-1.1887,-1.1887,-1.1887,-1.1887,-1.2438,-1.2431,-1.2393,-1.2367,-1.2328,-1.2303,-1.2281,-1.2249,-1.2214,-1.2178,-1.215,-1.211,-1.2057,-1.2013,-1.198,-1.1962,-1.1949,-1.1974,-1.1948,-1.1875,-1.1862,-1.185,-1.1849,-1.1973,-1.1973,-1.2028,-1.2029,-1.2029]},{"header":{"parameterUnit":"m.s-1","parameterCategory":1,"la1":30.2991,"la2":30.254,"lo1":-89.0895,"lo2":-89.0444,"dy":0.0017,"dx":0.0017,"nx":28,"ny":28,"refTime":"2025-08-16T09:00:00:Z","depth":0,"parameterNumber":3,"parameterNumberName":"V-component_of_WINDS"},"data":[0,0,0,0,0,0,0,0,0,0,0,0,0,0,0,0,0,0,0,0,0,0,0,0,0,0,0,0,0,0,0,0,0,0,0,0,0,0,0,0,0,0,0,0,0,0,0,0,0,0,0,0,0,0,0,0,0,0,-0.3387,-0.3386,0,-0.3261,-0.326,-0.3259,-0.3204,-0.3204,-0.3205,-0.3205,-0.3081,-0.3078,-0.3074,0,0,0,0,0,0,0,0,0,0,0,0,0,-0.3585,-0.3582,-0.3388,-0.3386,-0.3384,-0.3262,-0.326,-0.3258,-0.3204,-0.3204,-0.3205,-0.3205,-0.3082,-0.3078,-0.3074,0,0,0,0,0,0,0,0,0,0,0,0,0,-0.3484,-0.3581,-0.3388,-0.3343,-0.3337,-0.3262,-0.326,-0.3258,-0.3204,-0.3204,-0.3205,-0.3205,-0.3084,-0.3079,-0.3074,-0.3036,0,0,-0.3058,-0.3055,0,0,0,0,0,0,0,0,-0.3489,-0.3476,-0.3351,-0.3346,-0.3339,-0.3249,-0.3284,-0.3183,-0.3204,-0.3255,-0.3205,-0.3205,-0.3137,-0.3128,-0.3103,-0.303,-0.3025,-0.3057,-0.3054,-0.3052,-0.305,0,0,0,0,0,0,0,-0.3497,-0.3482,-0.3338,-0.3349,-0.3342,-0.333,-0.3316,-0.3265,-0.3196,-0.325,-0.3246,-0.3232,-0.3134,-0.3109,-0.31,-0.3023,-0.3057,-0.3053,-0.305,-0.3048,-0.2909,-0.2909,0,0,0,0,0,0,-0.351,-0.3488,-0.3342,-0.3334,-0.3416,-0.3326,-0.331,-0.3278,-0.3196,-0.3184,-0.3232,-0.323,-0.3117,-0.3106,-0.3096,-0.3044,-0.3052,-0.3047,-0.3044,-0.291,-0.2909,-0.2909,0,0,0,0,0,0,-0.3515,-0.3498,-0.3347,-0.341,-0.3389,-0.3322,-0.3286,-0.3275,-0.3249,-0.3182,-0.317,-0.3218,-0.3117,-0.3103,-0.305,-0.3039,-0.3045,-0.304,-0.2911,-0.291,-0.2909,-0.2941,0,0,0,0,0,0,-0.3521,-0.35,-0.3484,-0.341,-0.3386,-0.3302,-0.3286,-0.3272,-0.324,-0.3236,-0.3166,-0.3155,-0.3116,-0.3058,-0.3045,-0.3032,-0.3036,-0.2911,-0.291,-0.2909,-0.2941,-0.2942,-0.2942,0,0,0,0,0,-0.3528,-0.35,-0.3483,-0.3466,-0.3365,-0.3302,-0.3289,-0.3243,-0.3239,-0.3223,-0.3179,-0.3157,-0.3042,-0.3053,-0.3038,-0.3023,-0.2912,-0.2911,-0.2909,-0.2941,-0.2942,-0.2942,0,0,0,0,0,0,-0.3578,-0.349,-0.347,-0.3417,-0.3367,-0.3293,-0.3271,-0.3246,-0.3198,-0.3197,-0.3144,-0.3129,-0.308,-0.3047,-0.306,-0.2981,-0.2975,-0.2971,-0.3004,-0.3005,-0.3005,-0.3014,-0.3032,0,0,0,0,0,-0.3582,-0.3537,-0.3463,-0.3423,-0.3399,-0.3339,-0.331,-0.3279,-0.3226,-0.3205,-0.3158,-0.3109,-0.3061,-0.3031,-0.2984,-0.2936,-0.2919,-0.2918,-0.2919,-0.292,-0.2917,-0.2887,-0.2885,-0.2905,-0.2905,-0.2905,0,0,-0.3591,-0.3537,-0.3513,-0.3431,-0.3389,-0.3344,-0.3322,-0.3276,-0.3242,-0.3199,-0.3145,-0.3109,-0.305,-0.2999,-0.2974,-0.2969,-0.2907,-0.2918,-0.292,-0.2916,-0.2885,-0.2883,-0.2882,-0.2904,-0.2904,-0.2904,0,0,-0.3584,-0.354,-0.35,-0.3457,-0.3392,-0.3352,-0.3343,-0.3272,-0.3245,-0.319,-0.3155,-0.3116,-0.3036,-0.2994,-0.2963,-0.2938,-0.2915,-0.2925,-0.2928,-0.29,-0.2898,-0.2896,-0.2886,-0.2883,-0.2922,-0.2922,-0.2922,0,-0.3605,-0.3534,-0.3484,-0.3438,-0.3403,-0.3359,-0.3319,-0.3281,-0.3205,-0.3182,-0.3178,-0.3074,-0.3032,-0.2969,-0.2963,-0.294,-0.2927,-0.2932,-0.2902,-0.29,-0.2897,-0.2887,-0.2883,-0.2923,-0.2923,-0.2923,-0.2923,0,-0.3561,-0.3512,-0.3489,-0.3413,-0.3375,-0.3333,-0.3277,-0.3245,-0.3217,-0.3178,-0.3122,-0.3069,-0.3009,-0.2993,-0.2966,-0.2925,-0.2924,-0.2912,-0.2905,-0.2898,-0.2887,-0.2882,-0.2925,-0.2925,-0.2924,-0.2924,0,0,-0.3583,-0.3478,-0.347,-0.3434,-0.3358,-0.332,-0.3276,-0.3214,-0.3187,-0.3137,-0.3097,-0.3029,-0.3016,-0.2981,-0.2949,-0.2924,-0.2905,-0.2914,-0.2912,-0.2913,-0.2855,-0.2864,-0.286,-0.289,-0.2889,-0.2888,-0.2859,0,-0.3565,-0.348,-0.3433,-0.3369,-0.3323,-0.328,-0.3241,-0.319,-0.3152,-0.3108,-0.3067,-0.3019,-0.3006,-0.2984,-0.2957,-0.2913,-0.2893,-0.2915,-0.2853,-0.2852,-0.2867,-0.2855,-0.2864,-0.284,-0.2855,-0.2854,-0.2854,0,-0.3533,-0.3479,-0.3409,-0.3335,-0.3314,-0.328,-0.3219,-0.3178,-0.3119,-0.3093,-0.3052,-0.302,-0.2972,-0.2969,-0.2901,-0.2917,-0.2889,-0.2864,-0.2862,-0.2853,-0.2851,-0.2844,-0.2831,-0.2827,-0.2847,-0.2847,-0.2848,0,-0.3553,-0.3464,-0.341,-0.3381,-0.3294,-0.3271,-0.3234,-0.3176,-0.3141,-0.3089,-0.3066,-0.301,-0.2978,-0.2936,-0.2889,-0.2892,-0.2826,-0.282,-0.2803,-0.2804,-0.279,-0.2791,-0.277,-0.2775,-0.2775,-0.2775,-0.2775,0,-0.3537,-0.3496,-0.3417,-0.3384,-0.3336,-0.3283,-0.3237,-0.3197,-0.3145,-0.3104,-0.3065,-0.3027,-0.2969,-0.2924,-0.2888,-0.2836,-0.2823,-0.2801,-0.2791,-0.2803,-0.2806,-0.2783,-0.2783,-0.2774,-0.2774,-0.2774,-0.2775,0,-0.3553,-0.3498,-0.3436,-0.3358,-0.3337,-0.3305,-0.3239,-0.3205,-0.3165,-0.3113,-0.3097,-0.3034,-0.2979,-0.2928,-0.2856,-0.2832,-0.2779,-0.2768,-0.2798,-0.2792,-0.2777,-0.2779,-0.274,-0.2731,-0.2743,-0.2743,-0.2743,0,-0.3546,-0.3512,-0.3429,-0.3397,-0.336,-0.331,-0.3274,-0.322,-0.3183,-0.3113,-0.3088,-0.3029,-0.2979,-0.2893,-0.2841,-0.2786,-0.2772,-0.2762,-0.2763,-0.2776,-0.2769,-0.2771,-0.2767,-0.2763,-0.2763,-0.2763,-0.2763,0,-0.3538,-0.3512,-0.346,-0.3397,-0.3354,-0.3303,-0.3251,-0.3228,-0.3164,-0.3125,-0.3067,-0.3028,-0.2952,-0.2894,-0.2831,-0.2795,-0.2768,-0.2763,-0.2756,-0.2767,-0.2784,-0.2772,-0.2798,-0.2764,-0.2764,-0.2764,-0.2764,-0.2764,-0.354,-0.3508,-0.3443,-0.3386,-0.334,-0.3292,-0.3255,-0.3208,-0.3157,-0.3089,-0.3061,-0.3001,-0.2943,-0.2855,-0.2819,-0.2772,-0.2766,-0.2757,-0.2754,-0.2752,-0.2753,-0.2793,-0.2761,-0.2761,-0.2761,-0.276,-0.276,0,-0.3529,-0.3485,-0.3432,-0.3359,-0.3313,-0.3289,-0.323,-0.3194,-0.3141,-0.3087,-0.3038,-0.297,-0.2912,-0.2855,-0.2795,-0.2768,-0.2754,-0.2754,-0.2755,-0.2747,-0.2762,-0.2773,-0.2766,-0.2766,-0.2766,-0.2766,-0.2766,-0.2766,-0.3518,-0.346,-0.3426,-0.3345,-0.3301,-0.324,-0.3208,-0.3163,-0.3119,-0.3044,-0.2995,-0.2957,-0.2901,-0.2836,-0.2783,-0.2767,-0.2746,-0.2749,-0.2731,-0.2746,-0.2746,-0.2746,-0.2756,-0.2746,-0.2746,-0.2719,-0.2718,-0.2718]}]]